CCA1501 ZBAA-ZSSS

Flight info

Callsign CCA1501
Flight time N/A
Altitude 38100
Route ELKUR2G ELKUR W40 DOXAB/K0874S1190 W40 YQG/K0878S1220 W142 DALIM/K0876S1190 A593 DPX A470 DALNU W166 ZJ W167 SASAN SAS61A
Aircraft B77W/H-SDE1E2E3FGHIJ2J3J4J5M1RWXY/LB1D1

Departure

Time 2026-05-01 09:06
Airport Beijing Capital International Airport (ZBAA)

Arrival

Time N/A
Airport Shanghai Hongqiao International Airport (ZSSS)
Time Latitude Longitude Altitude Speed Heading
2026-05-01 08:47 40.07428 116.60463 134 ft 0 kts 83°
2026-05-01 08:57 40.07428 116.60462 128 ft 2 kts 83°
2026-05-01 08:57 40.07425 116.60430 123 ft 4 kts 83°
2026-05-01 08:58 40.07422 116.60397 123 ft 4 kts 83°
2026-05-01 08:58 40.07415 116.60364 123 ft 4 kts 51°
2026-05-01 08:58 40.07395 116.60346 123 ft 4 kts 10°
2026-05-01 08:58 40.07369 116.60345 123 ft 4 kts 352°
2026-05-01 08:59 40.07352 116.60348 123 ft 0 kts 353°
2026-05-01 09:01 40.07362 116.60346 125 ft 5 kts 353°
2026-05-01 09:01 40.07416 116.60338 125 ft 9 kts 353°
2026-05-01 09:01 40.07479 116.60320 126 ft 10 kts 342°
2026-05-01 09:01 40.07537 116.60282 127 ft 8 kts 328°
2026-05-01 09:02 40.07580 116.60224 125 ft 11 kts 304°
2026-05-01 09:02 40.07617 116.60129 127 ft 12 kts 295°
2026-05-01 09:02 40.07629 116.60023 128 ft 12 kts 267°
2026-05-01 09:02 40.07663 116.59931 124 ft 13 kts 336°
2026-05-01 09:03 40.07751 116.59898 126 ft 14 kts 347°
2026-05-01 09:03 40.07858 116.59885 125 ft 21 kts 358°
2026-05-01 09:03 40.08006 116.59865 126 ft 20 kts 353°
2026-05-01 09:03 40.08147 116.59844 127 ft 20 kts 353°
2026-05-01 09:04 40.08288 116.59822 126 ft 20 kts 353°
2026-05-01 09:04 40.08428 116.59800 126 ft 20 kts 353°
2026-05-01 09:04 40.08569 116.59777 125 ft 20 kts 353°
2026-05-01 09:04 40.08710 116.59755 127 ft 20 kts 353°
2026-05-01 09:05 40.08845 116.59734 127 ft 15 kts 352°
2026-05-01 09:05 40.08885 116.59658 125 ft 9 kts 275°
2026-05-01 09:05 40.08882 116.59578 126 ft 9 kts 264°
2026-05-01 09:05 40.08831 116.59511 125 ft 15 kts 194°
2026-05-01 09:06 40.08685 116.59524 125 ft 33 kts 173°
2026-05-01 09:06 40.08190 116.59602 126 ft 115 kts 173°
2026-05-01 09:06 40.07161 116.59773 234 ft 174 kts 172°
2026-05-01 09:06 40.06003 116.59943 1343 ft 158 kts 172°
2026-05-01 09:07 40.04895 116.60107 2226 ft 165 kts 172°
2026-05-01 09:07 40.03664 116.60300 2624 ft 197 kts 172°
2026-05-01 09:07 40.02171 116.60535 2872 ft 236 kts 171°
2026-05-01 09:07 40.00477 116.60800 3592 ft 252 kts 173°
2026-05-01 09:08 39.98713 116.61074 4565 ft 257 kts 172°
2026-05-01 09:08 39.96912 116.61408 5431 ft 265 kts 174°
2026-05-01 09:08 39.95076 116.61684 6474 ft 265 kts 177°
2026-05-01 09:08 39.93216 116.61953 7361 ft 272 kts 176°
2026-05-01 09:09 39.91325 116.62237 8345 ft 277 kts 175°
2026-05-01 09:09 39.89381 116.62531 9218 ft 284 kts 176°
2026-05-01 09:09 39.87407 116.62839 10184 ft 287 kts 176°
2026-05-01 09:09 39.85370 116.63156 10836 ft 306 kts 176°
2026-05-01 09:10 39.83151 116.63496 11084 ft 338 kts 176°
2026-05-01 09:10 39.80711 116.63863 11499 ft 363 kts 176°
2026-05-01 09:10 39.78158 116.64254 12443 ft 373 kts 175°
2026-05-01 09:10 39.75557 116.64658 13630 ft 379 kts 175°
2026-05-01 09:11 39.72919 116.65061 14669 ft 384 kts 175°
2026-05-01 09:11 39.70246 116.65471 15722 ft 390 kts 176°
2026-05-01 09:11 39.67535 116.65884 16785 ft 395 kts 176°
2026-05-01 09:11 39.64785 116.66337 17842 ft 402 kts 174°
2026-05-01 09:12 39.62011 116.67032 18735 ft 410 kts 171°
2026-05-01 09:12 39.59196 116.67827 19533 ft 418 kts 171°
2026-05-01 09:12 39.56368 116.68601 20365 ft 425 kts 172°
2026-05-01 09:12 39.53479 116.69560 21182 ft 435 kts 162°
2026-05-01 09:13 39.50739 116.71338 22003 ft 445 kts 153°
2026-05-01 09:13 39.48058 116.73400 22806 ft 452 kts 152°
2026-05-01 09:13 39.45330 116.75485 23548 ft 459 kts 153°
2026-05-01 09:13 39.42535 116.77557 24179 ft 465 kts 154°
2026-05-01 09:14 39.39691 116.79606 24823 ft 471 kts 155°
2026-05-01 09:14 39.36805 116.81657 25452 ft 476 kts 156°
2026-05-01 09:14 39.33880 116.83723 26067 ft 481 kts 157°
2026-05-01 09:14 39.30846 116.85549 26657 ft 482 kts 163°
2026-05-01 09:15 39.27696 116.87079 27238 ft 485 kts 166°
2026-05-01 09:15 39.24502 116.88537 27804 ft 490 kts 167°
2026-05-01 09:15 39.21281 116.90072 28387 ft 496 kts 166°
2026-05-01 09:15 39.18033 116.91694 28933 ft 502 kts 166°
2026-05-01 09:16 39.14736 116.92987 29249 ft 492 kts 179°
2026-05-01 09:16 39.11370 116.93018 29673 ft 478 kts 196°
2026-05-01 09:16 39.08221 116.91932 30212 ft 463 kts 211°
2026-05-01 09:17 39.02456 116.88430 30892 ft 466 kts 213°
2026-05-01 09:17 38.99505 116.86696 31392 ft 466 kts 212°
2026-05-01 09:17 38.93610 116.83322 32531 ft 463 kts 212°
2026-05-01 09:18 38.90670 116.81648 33056 ft 462 kts 213°
2026-05-01 09:18 38.84798 116.78299 34085 ft 460 kts 213°
2026-05-01 09:19 38.79003 116.75010 35252 ft 451 kts 213°
2026-05-01 09:19 38.76146 116.73390 35760 ft 447 kts 213°
2026-05-01 09:19 38.73311 116.71780 36261 ft 445 kts 214°
2026-05-01 09:20 38.67701 116.68600 37349 ft 437 kts 214°
2026-05-01 09:20 38.61934 116.66001 37900 ft 460 kts 197°
2026-05-01 09:21 38.55474 116.65390 37938 ft 465 kts 194°
2026-05-01 09:21 38.45863 116.64431 37936 ft 459 kts 196°
2026-05-01 09:22 38.33172 116.62998 37931 ft 461 kts 192°
2026-05-01 09:23 38.23389 116.64465 37936 ft 491 kts 174°
2026-05-01 09:24 38.13527 116.68274 37938 ft 494 kts 172°
2026-05-01 09:25 38.00326 116.73257 37938 ft 496 kts 172°
2026-05-01 09:26 37.90429 116.77045 37940 ft 495 kts 172°
2026-05-01 09:26 37.80540 116.80806 37946 ft 494 kts 172°
2026-05-01 09:27 37.71784 116.84123 37930 ft 493 kts 172°
2026-05-01 09:28 37.64162 116.87006 37952 ft 491 kts 171°
2026-05-01 09:28 37.57620 116.89475 37958 ft 490 kts 171°
2026-05-01 09:29 37.47817 116.93165 37918 ft 490 kts 172°
2026-05-01 09:30 37.38024 116.96843 37954 ft 490 kts 171°
2026-05-01 09:30 37.29327 117.00118 37964 ft 492 kts 169°
2026-05-01 09:31 37.22861 117.03080 37943 ft 496 kts 167°
2026-05-01 09:32 37.13147 117.07647 37971 ft 498 kts 167°
2026-05-01 09:32 37.03372 117.12213 37972 ft 501 kts 167°
2026-05-01 09:33 36.96829 117.15263 37952 ft 503 kts 167°
2026-05-01 09:34 36.86960 117.19771 38012 ft 502 kts 171°
2026-05-01 09:34 36.83586 117.20786 38215 ft 496 kts 178°
2026-05-01 09:34 36.76820 117.21670 38893 ft 482 kts 188°
2026-05-01 09:35 36.66739 117.21509 38675 ft 479 kts 188°
2026-05-01 09:35 36.63420 117.21463 38182 ft 475 kts 188°
2026-05-01 09:36 36.60185 117.21433 37785 ft 468 kts 188°
2026-05-01 09:36 36.56965 117.21413 37604 ft 458 kts 188°
2026-05-01 09:36 36.53812 117.21394 37600 ft 452 kts 188°
2026-05-01 09:37 36.47409 117.21334 37588 ft 468 kts 188°